When you browse on this site, cookies collect data to enhance your experience and personalize the content and advertising you see.
Visit our Privacy Policy to learn more. By continuing to use the site, you agree to this use of cookies and data.
  • In Czech Republic
  • List of Countries
  • For 7 days
  • Water Temperature
  • Satellite Maps
  • Weather Map
  • Weather Widgets
  • user-avatar
    Login

    Hourly Weather Wersele

    Today, 19 February, Tuesday

    Time Temperature Precipitation Wind Pressure Humidity
    00:00 0°C° 0 mm 4 mps 740 mmHg 92%
    01:00 0°C° 0 mm 4 mps 740 mmHg 92%
    02:00 -1°C° 0 mm 4 mps 739 mmHg 93%
    03:00 -1°C° 0 mm 5 mps 739 mmHg 94%
    04:00 -1°C° 0 mm 5 mps 738 mmHg 94%
    05:00 -1°C° 0 mm 5 mps 737 mmHg 94%
    06:00 -1°C° 0 mm 5 mps 737 mmHg 94%
    07:00 -1°C° 0 mm 5 mps 736 mmHg 93%
    08:00 -2°C° 0 mm 4 mps 736 mmHg 93%
    09:00 0°C° 0 mm 5 mps 735 mmHg 87%
    10:00 +1°C° 0 mm 5 mps 735 mmHg 81%
    11:00 +2°C° 0 mm 6 mps 735 mmHg 74%
    12:00 +3°C° 0 mm 6 mps 734 mmHg 70%
    13:00 +4°C° 0 mm 6 mps 734 mmHg 65%
    14:00 +7°C° 0 mm 5 mps 733 mmHg 59%
    15:00 +7°C° 0 mm 5 mps 733 mmHg 61%
    16:00 +7°C° 0 mm 5 mps 733 mmHg 63%
    17:00 +6°C° 0 mm 5 mps 732 mmHg 66%
    18:00 +5°C° 0 mm 5 mps 732 mmHg 72%
    19:00 +3°C° 0 mm 5 mps 732 mmHg 78%
    20:00 +3°C° 0 mm 4 mps 732 mmHg 84%
    21:00 +3°C° 0 mm 4 mps 732 mmHg 85%
    22:00 +2°C° 0 mm 5 mps 732 mmHg 86%
    23:00 +1°C° 0 mm 5 mps 732 mmHg 86%

    Tomorrow, 20 February, Wednesday

    Time Temperature Precipitation Wind Pressure Humidity
    00:00 +1°C° 0 mm 5 mps 732 mmHg 87%
    01:00 +1°C° 0 mm 6 mps 732 mmHg 87%
    02:00 +1°C° 0 mm 6 mps 732 mmHg 87%
    03:00 0°C° 0.1 mm 7 mps 732 mmHg 86%
    04:00 0°C° 0.1 mm 7 mps 732 mmHg 85%
    05:00 0°C° 0.1 mm 7 mps 731 mmHg 83%
    06:00 0°C° 0.1 mm 7 mps 732 mmHg 83%
    07:00 0°C° 0.1 mm 7 mps 732 mmHg 83%
    08:00 0°C° 0.1 mm 7 mps 732 mmHg 83%
    09:00 0°C° 0.1 mm 7 mps 732 mmHg 81%
    10:00 0°C° 0.1 mm 8 mps 732 mmHg 80%
    11:00 0°C° 0.1 mm 8 mps 732 mmHg 78%
    12:00 0°C° 0 mm 8 mps 733 mmHg 77%
    13:00 +1°C° 0 mm 8 mps 733 mmHg 77%
    14:00 +1°C° 0 mm 8 mps 733 mmHg 77%
    15:00 0°C° 0 mm 8 mps 734 mmHg 77%
    16:00 0°C° 0 mm 8 mps 734 mmHg 76%
    17:00 0°C° 0 mm 9 mps 735 mmHg 76%
    18:00 -1°C° 0 mm 8 mps 735 mmHg 74%
    19:00 -2°C° 0 mm 7 mps 736 mmHg 72%
    20:00 -4°C° 0 mm 6 mps 737 mmHg 70%
    21:00 -4°C° 0 mm 6 mps 737 mmHg 69%
    22:00 -4°C° 0 mm 5 mps 737 mmHg 69%
    23:00 -5°C° 0 mm 5 mps 738 mmHg 69%

    Day after tomorrow, 21 February, Thursday

    Time Temperature Precipitation Wind Pressure Humidity
    00:00 -5°C° 0 mm 5 mps 738 mmHg 68%
    01:00 -5°C° 0 mm 5 mps 739 mmHg 68%
    02:00 -5°C° 0 mm 5 mps 739 mmHg 68%
    03:00 -4°C° 0 mm 4 mps 739 mmHg 67%
    04:00 -4°C° 0 mm 4 mps 739 mmHg 67%
    05:00 -4°C° 0 mm 4 mps 739 mmHg 66%
    06:00 -4°C° 0 mm 4 mps 739 mmHg 66%
    07:00 -4°C° 0 mm 3 mps 739 mmHg 66%
    08:00 -4°C° 0 mm 3 mps 740 mmHg 65%
    09:00 -3°C° 0 mm 2 mps 740 mmHg 62%
    10:00 -2°C° 0 mm 2 mps 740 mmHg 59%
    11:00 0°C° 0 mm 1 mps 740 mmHg 55%
    12:00 0°C° 0.1 mm 1 mps 739 mmHg 59%
    13:00 0°C° 0.1 mm 1 mps 739 mmHg 62%
    14:00 0°C° 0.1 mm 1 mps 739 mmHg 65%
    15:00 -1°C° 0.2 mm 1 mps 739 mmHg 69%
    16:00 -1°C° 0.2 mm 1 mps 738 mmHg 72%
    17:00 -3°C° 0.2 mm 2 mps 738 mmHg 76%
    18:00 -3°C° 0.2 mm 2 mps 738 mmHg 73%
    19:00 -4°C° 0.2 mm 3 mps 739 mmHg 70%
    20:00 -5°C° 0.2 mm 3 mps 739 mmHg 67%
    21:00 -5°C° 0.1 mm 4 mps 740 mmHg 65%
    22:00 -5°C° 0.1 mm 4 mps 740 mmHg 64%
    23:00 -5°C° 0.1 mm 4 mps 741 mmHg 62%

    22 February, Friday

    Time Temperature Precipitation Wind Pressure Humidity
    00:00 -7°C° 0 mm 4 mps 742 mmHg 62%
    01:00 -7°C° 0 mm 4 mps 743 mmHg 63%
    02:00 -7°C° 0 mm 5 mps 743 mmHg 63%
    03:00 -8°C° 0 mm 5 mps 744 mmHg 62%
    04:00 -8°C° 0 mm 5 mps 745 mmHg 62%
    05:00 -10°C° 0 mm 6 mps 746 mmHg 61%
    06:00 -10°C° 0 mm 6 mps 747 mmHg 61%
    07:00 -11°C° 0 mm 5 mps 748 mmHg 61%
    08:00 -11°C° 0 mm 5 mps 749 mmHg 61%
    09:00 -11°C° 0 mm 5 mps 750 mmHg 56%
    10:00 -10°C° 0 mm 5 mps 750 mmHg 52%
    11:00 -10°C° 0 mm 5 mps 751 mmHg 47%
    12:00 -8°C° 0 mm 4 mps 752 mmHg 43%
    13:00 -7°C° 0 mm 4 mps 752 mmHg 39%
    14:00 -7°C° 0 mm 4 mps 753 mmHg 35%
    15:00 -7°C° 0 mm 4 mps 753 mmHg 36%
    16:00 -6°C° 0 mm 3 mps 753 mmHg 36%
    17:00 -6°C° 0 mm 3 mps 753 mmHg 37%
    18:00 -6°C° 0 mm 3 mps 753 mmHg 40%
    19:00 -7°C° 0 mm 3 mps 754 mmHg 42%
    20:00 -7°C° 0 mm 3 mps 754 mmHg 45%
    21:00 -8°C° 0 mm 3 mps 754 mmHg 47%
    22:00 -8°C° 0 mm 3 mps 754 mmHg 49%
    23:00 -8°C° 0 mm 3 mps 754 mmHg 51%

    23 February, Saturday

    Time Temperature Precipitation Wind Pressure Humidity
    00:00 -8°C° 0 mm 3 mps 754 mmHg 53%
    01:00 -8°C° 0 mm 3 mps 754 mmHg 56%
    02:00 -8°C° 0 mm 2 mps 754 mmHg 58%
    03:00 -8°C° 0 mm 2 mps 754 mmHg 60%
    04:00 -8°C° 0 mm 2 mps 754 mmHg 61%
    05:00 -8°C° 0 mm 2 mps 754 mmHg 62%
    06:00 -8°C° 0 mm 2 mps 754 mmHg 62%
    07:00 -7°C° 0 mm 1 mps 753 mmHg 63%
    08:00 -7°C° 0 mm 1 mps 753 mmHg 63%
    09:00 -6°C° 0 mm 1 mps 753 mmHg 60%
    10:00 -4°C° 0 mm 1 mps 753 mmHg 57%
    11:00 -3°C° 0 mm 1 mps 753 mmHg 54%
    12:00 -4°C° 0 mm 2 mps 753 mmHg 53%
    13:00 -4°C° 0 mm 2 mps 753 mmHg 51%
    14:00 -3°C° 0 mm 2 mps 753 mmHg 50%
    15:00 -3°C° 0 mm 2 mps 752 mmHg 56%
    16:00 -5°C° 0 mm 3 mps 752 mmHg 62%
    17:00 -5°C° 0 mm 3 mps 751 mmHg 68%
    18:00 -5°C° 0.1 mm 3 mps 751 mmHg 73%
    19:00 -6°C° 0.1 mm 3 mps 750 mmHg 79%
    20:00 -6°C° 0.1 mm 3 mps 750 mmHg 84%
    21:00 -6°C° 0.1 mm 3 mps 750 mmHg 85%
    22:00 -5°C° 0.1 mm 3 mps 749 mmHg 86%
    23:00 -5°C° 0.1 mm 3 mps 749 mmHg 86%

    24 February, Sunday

    Time Temperature Precipitation Wind Pressure Humidity
    00:00 -5°C° 0.1 mm 3 mps 749 mmHg 89%
    01:00 -4°C° 0.1 mm 3 mps 749 mmHg 91%
    02:00 -4°C° 0.1 mm 3 mps 749 mmHg 94%
    03:00 -4°C° 0 mm 3 mps 749 mmHg 95%
    04:00 -2°C° 0 mm 3 mps 749 mmHg 96%
    05:00 -2°C° 0 mm 3 mps 749 mmHg 97%
    06:00 -2°C° 0 mm 3 mps 749 mmHg 97%
    07:00 -2°C° 0 mm 3 mps 750 mmHg 97%
    08:00 -2°C° 0 mm 3 mps 750 mmHg 97%
    09:00 -2°C° 0 mm 3 mps 751 mmHg 94%
    10:00 -1°C° 0 mm 3 mps 751 mmHg 91%
    11:00 -1°C° 0 mm 3 mps 752 mmHg 88%
    12:00 -1°C° 0 mm 2 mps 752 mmHg 86%
    13:00 -1°C° 0 mm 2 mps 752 mmHg 85%
    14:00 +1°C° 0 mm 2 mps 752 mmHg 83%
    15:00 -1°C° 0 mm 2 mps 752 mmHg 84%
    16:00 -1°C° 0 mm 2 mps 752 mmHg 84%
    17:00 -1°C° 0 mm 2 mps 752 mmHg 85%
    18:00 -1°C° 0 mm 2 mps 752 mmHg 87%
    19:00 +1°C° 0 mm 1 mps 752 mmHg 89%
    20:00 0°C° 0 mm 1 mps 753 mmHg 91%
    21:00 0°C° 0 mm 1 mps 753 mmHg 92%
    22:00 0°C° 0 mm 1 mps 753 mmHg 93%
    23:00 -1°C° 0 mm 1 mps 753 mmHg 94%
    Show more